When you browse on this site, cookies collect data to enhance your experience and personalize the content and advertising you see.
Visit our Privacy Policy to learn more. By continuing to use the site, you agree to this use of cookies and data.
  • In United Kingdom
  • List of Countries
  • For 7 days
  • Water Temperature
  • Weather Map
  • Weather Widgets
  • user-avatar
    Login

    Hourly Weather Asunción

    Today, 15 October, Tuesday

    Time Temperature Precipitation Wind Pressure Humidity
    00:00 +24°C° 0.2 mm 2 mps 755 mmHg 95%
    01:00 +24°C° 0.2 mm 2 mps 755 mmHg 95%
    02:00 +23°C° 0.2 mm 2 mps 755 mmHg 96%
    03:00 +23°C° 0.2 mm 2 mps 755 mmHg 96%
    04:00 +21°C° 0.2 mm 2 mps 755 mmHg 96%
    05:00 +21°C° 0.2 mm 3 mps 755 mmHg 96%
    06:00 +21°C° 0.3 mm 3 mps 756 mmHg 96%
    07:00 +21°C° 0.3 mm 3 mps 756 mmHg 96%
    08:00 +20°C° 0.3 mm 3 mps 757 mmHg 96%
    09:00 +20°C° 0.2 mm 3 mps 757 mmHg 94%
    10:00 +20°C° 0.2 mm 3 mps 757 mmHg 93%
    11:00 +20°C° 0.2 mm 3 mps 757 mmHg 92%
    12:00 +20°C° 0.2 mm 4 mps 757 mmHg 92%
    13:00 +19°C° 0.2 mm 4 mps 757 mmHg 93%
    14:00 +19°C° 0.2 mm 4 mps 756 mmHg 93%
    15:00 +19°C° 0 mm 4 mps 756 mmHg 91%
    16:00 +18°C° 0 mm 4 mps 756 mmHg 89%
    17:00 +18°C° 0 mm 4 mps 756 mmHg 88%
    18:00 +18°C° 0 mm 4 mps 757 mmHg 87%
    19:00 +18°C° 0 mm 3 mps 757 mmHg 86%
    20:00 +17°C° 0 mm 3 mps 758 mmHg 86%
    21:00 +17°C° 0 mm 3 mps 757 mmHg 86%
    22:00 +17°C° 0 mm 3 mps 757 mmHg 86%
    23:00 +17°C° 0 mm 2 mps 757 mmHg 86%

    Tomorrow, 16 October, Wednesday

    Time Temperature Precipitation Wind Pressure Humidity
    00:00 +16°C° 0 mm 2 mps 757 mmHg 86%
    01:00 +16°C° 0 mm 2 mps 757 mmHg 86%
    02:00 +16°C° 0 mm 2 mps 757 mmHg 87%
    03:00 +16°C° 0 mm 2 mps 757 mmHg 86%
    04:00 +17°C° 0 mm 2 mps 757 mmHg 86%
    05:00 +17°C° 0 mm 2 mps 757 mmHg 86%
    06:00 +18°C° 0 mm 2 mps 757 mmHg 84%
    07:00 +18°C° 0 mm 2 mps 758 mmHg 82%
    08:00 +19°C° 0 mm 2 mps 758 mmHg 80%
    09:00 +20°C° 0 mm 2 mps 758 mmHg 78%
    10:00 +21°C° 0 mm 2 mps 758 mmHg 75%
    11:00 +23°C° 0 mm 1 mps 757 mmHg 72%
    12:00 +24°C° 0 mm 2 mps 757 mmHg 71%
    13:00 +25°C° 0 mm 2 mps 756 mmHg 69%
    14:00 +26°C° 0 mm 2 mps 756 mmHg 67%
    15:00 +25°C° 0 mm 2 mps 755 mmHg 69%
    16:00 +25°C° 0 mm 2 mps 755 mmHg 72%
    17:00 +25°C° 0 mm 2 mps 754 mmHg 74%
    18:00 +24°C° 0 mm 2 mps 754 mmHg 77%
    19:00 +22°C° 0 mm 3 mps 755 mmHg 79%
    20:00 +21°C° 0 mm 3 mps 755 mmHg 81%
    21:00 +20°C° 0 mm 3 mps 755 mmHg 84%
    22:00 +20°C° 0 mm 2 mps 755 mmHg 86%
    23:00 +19°C° 0 mm 2 mps 755 mmHg 89%

    Day after tomorrow, 17 October, Thursday

    Time Temperature Precipitation Wind Pressure Humidity
    00:00 +19°C° 0.2 mm 2 mps 754 mmHg 91%
    01:00 +19°C° 0.2 mm 2 mps 754 mmHg 93%
    02:00 +18°C° 0.2 mm 2 mps 754 mmHg 95%
    03:00 +18°C° 0.6 mm 2 mps 754 mmHg 96%
    04:00 +18°C° 0.6 mm 2 mps 754 mmHg 97%
    05:00 +19°C° 0.6 mm 1 mps 754 mmHg 98%
    06:00 +21°C° 1 mm 1 mps 754 mmHg 95%
    07:00 +22°C° 1 mm 1 mps 754 mmHg 92%
    08:00 +24°C° 1 mm 1 mps 754 mmHg 89%
    09:00 +27°C° 0.2 mm 1 mps 754 mmHg 79%
    10:00 +30°C° 0.2 mm 1 mps 754 mmHg 69%
    11:00 +33°C° 0.2 mm 1 mps 753 mmHg 59%
    12:00 +34°C° 0 mm 1 mps 753 mmHg 56%
    13:00 +34°C° 0 mm 1 mps 752 mmHg 53%
    14:00 +35°C° 0 mm 1 mps 751 mmHg 50%
    15:00 +34°C° 0.2 mm 2 mps 751 mmHg 57%
    16:00 +33°C° 0.2 mm 3 mps 751 mmHg 65%
    17:00 +30°C° 0.2 mm 3 mps 751 mmHg 72%
    18:00 +29°C° 0.3 mm 4 mps 751 mmHg 78%
    19:00 +27°C° 0.3 mm 5 mps 752 mmHg 84%
    20:00 +25°C° 0.3 mm 5 mps 752 mmHg 90%
    21:00 +25°C° 0.9 mm 5 mps 753 mmHg 92%
    22:00 +23°C° 0.9 mm 4 mps 753 mmHg 93%
    23:00 +24°C° 0.9 mm 3 mps 753 mmHg 95%

    18 October, Friday

    Time Temperature Precipitation Wind Pressure Humidity
    00:00 +22°C° 1.3 mm 3 mps 753 mmHg 95%
    01:00 +22°C° 1.3 mm 3 mps 753 mmHg 96%
    02:00 +22°C° 1.3 mm 3 mps 753 mmHg 96%
    03:00 +22°C° 1.1 mm 3 mps 753 mmHg 96%
    04:00 +23°C° 1.1 mm 2 mps 753 mmHg 97%
    05:00 +23°C° 1.1 mm 2 mps 753 mmHg 97%
    06:00 +23°C° 1 mm 2 mps 754 mmHg 96%
    07:00 +23°C° 1 mm 2 mps 754 mmHg 96%
    08:00 +22°C° 1 mm 3 mps 755 mmHg 96%
    09:00 +24°C° 1 mm 2 mps 755 mmHg 94%
    10:00 +24°C° 1 mm 2 mps 755 mmHg 93%
    11:00 +25°C° 1 mm 2 mps 755 mmHg 92%
    12:00 +25°C° 0.4 mm 2 mps 755 mmHg 91%
    13:00 +25°C° 0.4 mm 3 mps 754 mmHg 91%
    14:00 +25°C° 0.4 mm 3 mps 754 mmHg 91%
    15:00 +24°C° 0.4 mm 3 mps 754 mmHg 92%
    16:00 +24°C° 0.4 mm 3 mps 753 mmHg 93%
    17:00 +24°C° 0.4 mm 3 mps 753 mmHg 94%
    18:00 +22°C° 0.3 mm 3 mps 753 mmHg 94%
    19:00 +22°C° 0.3 mm 3 mps 754 mmHg 95%
    20:00 +22°C° 0.3 mm 3 mps 754 mmHg 95%
    21:00 +22°C° 0 mm 3 mps 754 mmHg 95%
    22:00 +21°C° 0 mm 2 mps 754 mmHg 95%
    23:00 +21°C° 0 mm 2 mps 755 mmHg 96%

    19 October, Saturday

    Time Temperature Precipitation Wind Pressure Humidity
    00:00 +21°C° 0 mm 2 mps 755 mmHg 96%
    01:00 +21°C° 0 mm 2 mps 754 mmHg 96%
    02:00 +21°C° 0 mm 2 mps 754 mmHg 96%
    03:00 +21°C° 0.1 mm 2 mps 754 mmHg 96%
    04:00 +21°C° 0.1 mm 2 mps 754 mmHg 97%
    05:00 +21°C° 0.1 mm 2 mps 754 mmHg 97%
    06:00 +21°C° 0.2 mm 2 mps 755 mmHg 94%
    07:00 +23°C° 0.2 mm 2 mps 755 mmHg 92%
    08:00 +24°C° 0.2 mm 2 mps 755 mmHg 89%
    09:00 +25°C° 0.3 mm 2 mps 755 mmHg 88%
    10:00 +25°C° 0.3 mm 2 mps 755 mmHg 87%
    11:00 +25°C° 0.3 mm 2 mps 755 mmHg 86%
    12:00 +26°C° 0.2 mm 2 mps 755 mmHg 85%
    13:00 +26°C° 0.2 mm 2 mps 754 mmHg 83%
    14:00 +27°C° 0.2 mm 2 mps 754 mmHg 81%
    15:00 +26°C° 0.6 mm 2 mps 753 mmHg 85%
    16:00 +25°C° 0.6 mm 3 mps 753 mmHg 88%
    17:00 +24°C° 0.6 mm 3 mps 753 mmHg 92%
    18:00 +22°C° 0.1 mm 3 mps 753 mmHg 93%
    19:00 +23°C° 0.1 mm 2 mps 753 mmHg 93%
    20:00 +21°C° 0.1 mm 2 mps 753 mmHg 94%
    21:00 +21°C° 0 mm 2 mps 753 mmHg 94%
    22:00 +21°C° 0 mm 2 mps 753 mmHg 94%
    23:00 +21°C° 0 mm 2 mps 753 mmHg 94%

    20 October, Sunday

    Time Temperature Precipitation Wind Pressure Humidity
    00:00 +20°C° 0 mm 2 mps 753 mmHg 94%
    01:00 +20°C° 0 mm 2 mps 753 mmHg 93%
    02:00 +21°C° 0 mm 1 mps 752 mmHg 93%
    03:00 +21°C° 0.1 mm 1 mps 752 mmHg 93%
    04:00 +21°C° 0.1 mm 1 mps 752 mmHg 93%
    05:00 +20°C° 0.1 mm 2 mps 752 mmHg 93%
    06:00 +22°C° 0.1 mm 1 mps 752 mmHg 92%
    07:00 +22°C° 0.1 mm 1 mps 753 mmHg 92%
    08:00 +23°C° 0.1 mm 1 mps 753 mmHg 91%
    09:00 +23°C° 0.3 mm 1 mps 752 mmHg 90%
    10:00 +24°C° 0.3 mm 1 mps 752 mmHg 90%
    11:00 +25°C° 0.3 mm 1 mps 752 mmHg 89%
    12:00 +26°C° 0.1 mm 1 mps 751 mmHg 86%
    13:00 +27°C° 0.1 mm 1 mps 751 mmHg 83%
    14:00 +27°C° 0.1 mm 1 mps 750 mmHg 80%
    15:00 +27°C° 0.4 mm 1 mps 750 mmHg 83%
    16:00 +26°C° 0.4 mm 2 mps 750 mmHg 86%
    17:00 +26°C° 0.4 mm 2 mps 749 mmHg 88%
    18:00 +25°C° 0.1 mm 3 mps 750 mmHg 91%
    19:00 +24°C° 0.1 mm 3 mps 750 mmHg 94%
    20:00 +22°C° 0.1 mm 3 mps 750 mmHg 96%
    21:00 +21°C° 0.1 mm 3 mps 751 mmHg 96%
    22:00 +21°C° 0.1 mm 3 mps 751 mmHg 96%
    23:00 +21°C° 0.1 mm 3 mps 752 mmHg 95%
    Show more